Location: Gerlach
(40.6516°N, 119.3568°W)
Time: 04:41:02
(UTC-07:00)

SEEDS - Pass Details

Date: 06 March 2024
Orbit: 554 x 564 km, 97.7° (Epoch: 23 April)

Event Time Altitude Azimuth Distance (km) Brightness Sun altitude
Rises 03:05:11 0° 26° (NNE) 2,789 ? -37.1°
Reaches altitude 10° 03:07:40 10° 40° (NE) 1,884 ? -36.7°
Enters shadow 03:08:16 13° 46° (NE) 1,694 ? -36.6°
